CDT,Max TemperatureF,Mean TemperatureF,Min TemperatureF,Max Dew PointF,MeanDew PointF,Min DewpointF,Max Humidity, Mean Humidity, Min Humidity, Max Sea Level PressureIn, Mean Sea Level PressureIn, Min Sea Level PressureIn, Max VisibilityMiles, Mean VisibilityMiles, Min VisibilityMiles, Max Wind SpeedMPH, Mean Wind SpeedMPH, Max Gust SpeedMPH,PrecipitationIn, CloudCover, Events, WindDirDegrees
2013-10-1,73,63,53,54,44,33,75,50,22,29.94,29.73,29.59,10,10,10,15,9,28,0.00,0,,234
2013-10-2,75,59,43,52,42,35,93,60,24,30.06,30.02,29.95,10,9,2,8,6,,0.37,2,Rain,229
2013-10-3,57,54,51,54,52,50,100,91,75,30.03,29.98,29.95,10,9,4,15,8,20,0.35,8,Rain,57
2013-10-4,55,54,51,52,50,46,94,88,77,30.13,30.09,30.03,10,10,4,20,14,30,0.02,8,,51
2013-10-5,53,52,50,52,50,48,100,93,86,30.07,29.92,29.75,10,6,2,18,14,25,1.59,8,Rain,56
2013-10-6,54,48,43,52,49,40,100,93,88,29.79,29.71,29.67,10,6,1,14,7,20,0.19,8,Rain,336
2013-10-7,62,50,36,45,41,35,97,79,47,30.01,29.90,29.78,10,10,10,10,6,,0.00,0,,264
2013-10-8,75,54,34,45,41,33,100,59,30,30.02,29.93,29.84,10,10,10,21,7,31,0.00,0,,196
2013-10-9,75,62,48,52,48,45,93,60,42,30.09,30.02,29.94,10,10,10,15,8,23,0.00,0,,200
2013-10-10,75,57,41,52,46,40,97,77,34,30.10,30.05,29.98,10,10,6,10,2,,0.00,0,,189
2013-10-11,75,58,42,54,49,40,96,68,41,30.01,29.89,29.72,10,10,8,14,4,30,0.00,0,,162
2013-10-12,66,57,48,54,46,40,87,67,50,30.07,29.85,29.69,10,10,10,18,12,29,0.00,5,,224
2013-10-13,59,46,34,45,37,29,93,70,36,30.43,30.33,30.10,10,10,10,9,5,,0.00,3,,261
2013-10-14,53,41,30,44,37,30,96,81,59,30.46,30.37,30.17,10,10,10,12,2,,0.00,2,,53
2013-10-15,50,48,46,49,46,39,100,92,68,30.15,29.85,29.74,10,4,2,23,12,33,1.50,8,Rain,52
2013-10-16,52,43,35,45,40,33,100,86,59,29.93,29.87,29.81,10,7,2,21,12,28,0.19,6,Rain,330
2013-10-17,53,42,33,45,41,31,100,87,66,29.88,29.81,29.78,10,8,2,7,4,,0.27,6,Rain,260
2013-10-18,52,42,32,45,39,28,100,85,43,29.93,29.85,29.79,10,9,3,12,6,,0.29,7,Rain,339
2013-10-19,44,39,33,39,36,31,96,89,76,29.82,29.72,29.66,10,10,5,9,5,,0.12,7,Rain,227
2013-10-20,45,37,30,37,33,28,100,91,73,29.80,29.75,29.71,10,9,5,6,3,,0.27,6,Rain,262
2013-10-21,37,34,32,36,29,26,100,84,67,29.86,29.80,29.74,10,6,1,17,9,28,0.06,8,Snow,261
2013-10-22,37,34,30,31,29,26,89,80,65,30.03,29.97,29.87,10,10,10,9,6,,0.00,7,,288
2013-10-23,41,34,30,30,26,22,89,73,53,30.04,29.99,29.95,10,10,9,10,7,,0.00,8,,274
2013-10-24,43,36,32,31,29,25,92,74,55,30.27,30.17,30.05,10,10,10,12,7,17,0.00,7,,269
2013-10-25,51,40,28,37,30,25,89,69,46,30.28,30.01,29.66,10,10,10,26,9,38,0.00,3,,231
2013-10-26,48,42,37,36,31,28,79,65,53,30.06,29.93,29.70,10,10,10,16,11,24,0.00,8,,308
2013-10-27,51,42,33,34,29,25,86,67,46,30.27,29.98,29.81,10,10,5,21,9,31,0.00,5,Snow,275
2013-10-28,42,30,21,31,25,19,89,75,56,30.54,30.47,30.30,10,8,2,18,10,29,0.03,6,Snow,43
2013-10-29,37,28,19,34,29,17,100,89,70,30.53,30.34,30.17,10,8,2,8,0,,0.02,6,Snow,202
2013-10-30,44,40,35,43,39,33,100,94,86,30.18,29.94,29.71,10,4,0,6,1,,0.06,8,Fog-Rain,38
2013-10-31,48,45,42,47,44,42,100,96,93,29.69,29.46,29.31,10,2,0,10,2,,0.13,8,Fog-Rain,20